{"data":{"norad_id":50497,"intl_designator":"2021-132AE","name":"ONEWEB-0424","alt_names":[],"object_type":"PAYLOAD","status":"ACTIVE","operator":null,"country":"UK","launch_date":"2021-12-27","launch_site_code":"TYMSC","launch_vehicle":null,"mission":null,"orbit_class":"UNKNOWN","rcs_meters":null,"size_class":null,"mass_kg":null,"dimensions":null,"purposes":["comms"],"wikipedia_slug":null,"has_3d_model":false,"image_url":null,"decayed_at":null,"tle_current":{"epoch":"2026-05-25T01:26:51.959040Z","epoch_age_seconds":78801,"freshness":"FRESH","line1":"1 50497U 21132AE  26145.06032360 -.00000057  00000+0 -17628-3 0  9992","line2":"2 50497  87.9167 340.0569 0001713  99.9664 260.1661 13.18687845218595","mean_motion":13.18687845,"eccentricity":0.0001713,"inclination_deg":87.9167,"raan_deg":340.0569,"arg_perigee_deg":99.9664,"mean_anomaly_deg":260.1661,"bstar":-0.00017628,"rev_number":21859,"period_min":109.19945955822,"perigee_km":1188.4396913035,"apogee_km":1191.0324446166,"semimajor_km":7567.8730679601,"source":"CELESTRAK","updated_at":"2026-05-25T13:38:22.534314Z"}}}